This is the latest recevied weather packets stored in our database for station/object KC8JWT. If no packets are shown the sender has not sent any weather packets the latest 10 day(s).
| Time | Temp. | Humidity | Pressure | Rain* | Wind** | Luminosity | Snow |
|---|---|---|---|---|---|---|---|
| 1778060361 | 13.89° C | 99% | 1006.8 hPa | 7.87 mm | - | 0 W/m² | - |
| 1778059454 | 13.89° C | 99% | 1006.8 hPa | 0 mm | - | 0 W/m² | - |
| 1778059150 | 13.89° C | 99% | 1006.9 hPa | 1.27 mm | - | 0 W/m² | - |
| 1778058849 | 13.89° C | 99% | 1006.8 hPa | 1.27 mm | - | 0 W/m² | - |
| 1778058546 | 13.89° C | 99% | 1006.7 hPa | 10.67 mm | - | 0 W/m² | - |
| 1778058243 | 13.89° C | 99% | 1006.7 hPa | 10.67 mm | - | 0 W/m² | - |
| 1778057636 | 13.89° C | 99% | 1006.9 hPa | 0 mm | - | 0 W/m² | - |
| 1778057333 | 13.89° C | 99% | 1006.8 hPa | 0 mm | - | 0 W/m² | - |
| 1778057029 | 13.89° C | 99% | 1006.8 hPa | 1.78 mm | - | 0 W/m² | - |
| 1778056726 | 13.89° C | 99% | 1006.8 hPa | 8.89 mm | - | 0 W/m² | - |
| 1778056424 | 13.89° C | 99% | 1006.8 hPa | 7.11 mm | - | 0 W/m² | - |
| 1778056121 | 13.89° C | 99% | 1006.9 hPa | 1.78 mm | - | 0 W/m² | - |
| 1778055818 | 13.89° C | 99% | 1006.7 hPa | 10.67 mm | - | 0 W/m² | - |
| 1778055513 | 14.44° C | 99% | 1007.1 hPa | 8.89 mm | - | 0 W/m² | - |
| 1778055212 | 14.44° C | 99% | 1006.8 hPa | 1.78 mm | - | 0 W/m² | - |
| 1778054909 | 14.44° C | 99% | 1006.9 hPa | 21.59 mm | - | 0 W/m² | - |
| 1778054605 | 14.44° C | 99% | 1006.9 hPa | 21.59 mm | - | 0 W/m² | - |
| 1778054001 | 14.44° C | 99% | 1007.1 hPa | 1.27 mm | - | 0 W/m² | - |
| 1778053697 | 14.44° C | 99% | 1007 hPa | 10.67 mm | - | 0 W/m² | - |
| 1778053395 | 14.44° C | 99% | 1007.1 hPa | 9.65 mm | - | 0 W/m² | - |
| 1778053092 | 15° C | 99% | 1007 hPa | 4.32 mm | - | 0 W/m² | - |
| 1778052790 | 15° C | 99% | 1007.2 hPa | 13.21 mm | - | 0 W/m² | - |
| 1778052486 | 15° C | 99% | 1007.6 hPa | 13.72 mm | - | 0 W/m² | - |
| 1778052184 | 15° C | 98% | 1007.5 hPa | 7.87 mm | - | 0 W/m² | - |
| 1778051881 | 15° C | 97% | 1007.7 hPa | 3.05 mm | - | 0 W/m² | - |
* Rain latest hour (hover to see other rain measurements)
** Current wind speed in m/s (hover to see current wind gust speed)